STARLINK-1789

operational
NORAD ID: 46690 Int'l Des: 2020-073 Owner: SPXS Country: US Constellation: starlink
LEOCIRCULARSTARLINK_TYPE

Über STARLINK-1789

Beschreibung wird geladen...

Live-Position

3D-Globus wird geladen...

Nächste Überflüge

Höhenverlauf

Altitude vs Time

uPlot chart will show altitude changes over time

Zweizeiliger Elementsatz

1 46690U 20073W 25252.22544410 .00010036 00000-0 69200-3 0 9995
2 46690 53.0556 326.2455 0001361 101.3606 258.7536 15.06384299269916
Epoch: 9. Sept. 2025 • Age: 10 hours

Aktueller Status

Höhe 552.7 km
Geschwindigkeit 7.59 km/s
Subsatellitenpunkt 52.09°N, 179.51°E
Startdatum 18. Okt. 2020
Alter 4.8 years
Typ internet

Technische Details

Klassifizierung Payload
Masse 260.00 kg
Trockenmasse 248.00 kg
Gesamtmasse 260.00 kg
Länge 0.20 m
Durchmesser 2.80 m
Spannweite 9.00 m
Form Box + pan
Hersteller SPXS
Bus-Typ Starlink
Phasenstatus In Orbit
Besitzer/Staat SPXS/US

Große Konstellationen

Loading constellations...